Total_Precipitation_Accumulation
0.18 0.14 0.16 0.30 0.49 0.44 0.30 0.24 0.22 0.23 0.21 0.16 0.13 0.12 0.10 0.10 0.11 0.13 0.12 0.14 0.17 0.19 0.22 0.26 0.27 0.29 0.32 0.30 0.33 0.36 0.38 0.46 0.46 0.14 0.05 0.06 0.17 0.23 0.21 0.16 0.15 0.17 0.15
0.19 0.15 0.15 0.19 0.35 0.49 0.40 0.29 0.23 0.21 0.20 0.17 0.14 0.14 0.16 0.16 0.17 0.18 0.18 0.17 0.20 0.22 0.24 0.28 0.30 0.29 0.30 0.29 0.32 0.34 0.32 0.31 0.37 0.24 0.08 0.07 0.12 0.20 0.28 0.28 0.22 0.20 0.19
0.21 0.20 0.17 0.18 0.23 0.34 0.45 0.37 0.29 0.22 0.18 0.16 0.15 0.16 0.23 0.28 0.24 0.19 0.22 0.22 0.22 0.24 0.26 0.30 0.30 0.30 0.30 0.27 0.32 0.32 0.27 0.24 0.29 0.32 0.17 0.10 0.13 0.15 0.27 0.37 0.32 0.28 0.25
0.17 0.22 0.19 0.18 0.18 0.21 0.31 0.41 0.36 0.27 0.20 0.15 0.14 0.13 0.22 0.40 0.41 0.32 0.35 0.32 0.26 0.23 0.20 0.19 0.26 0.36 0.36 0.35 0.38 0.33 0.30 0.34 0.38 0.44 0.33 0.21 0.20 0.21 0.32 0.44 0.47 0.43 0.35
0.12 0.17 0.18 0.18 0.17 0.19 0.23 0.30 0.38 0.35 0.24 0.16 0.13 0.12 0.16 0.49 0.85 0.78 0.70 0.52 0.31 0.19 0.13 0.12 0.21 0.36 0.42 0.56 0.68 0.59 0.59 0.68 0.66 0.68 0.60 0.48 0.41 0.42 0.46 0.46 0.61 0.59 0.50
0.08 0.12 0.14 0.17 0.18 0.19 0.21 0.21 0.26 0.32 0.30 0.20 0.13 0.12 0.12 0.37 0.90 0.97 0.72 0.39 0.24 0.18 0.14 0.11 0.14 0.27 0.31 0.41 0.57 0.68 0.78 0.92 0.98 0.98 0.93 0.81 0.59 0.52 0.51 0.60 0.69 0.81 0.78
0.07 0.11 0.12 0.13 0.16 0.18 0.18 0.20 0.22 0.23 0.26 0.25 0.17 0.11 0.09 0.23 0.75 0.85 0.55 0.31 0.20 0.16 0.12 0.11 0.12 0.21 0.29 0.35 0.42 0.47 0.53 0.69 0.92 1.04 1.09 0.81 0.62 0.55 0.67 0.82 0.81 0.90 0.85
0.07 0.11 0.11 0.10 0.14 0.16 0.18 0.19 0.22 0.21 0.19 0.22 0.21 0.15 0.10 0.15 0.58 0.72 0.45 0.27 0.17 0.13 0.10 0.11 0.11 0.16 0.29 0.50 0.51 0.46 0.41 0.48 0.70 0.91 1.13 0.97 0.79 0.78 1.01 1.27 1.34 1.24 0.91
0.07 0.10 0.09 0.08 0.10 0.14 0.17 0.18 0.21 0.20 0.18 0.19 0.18 0.16 0.14 0.13 0.40 0.62 0.44 0.25 0.19 0.14 0.09 0.09 0.12 0.15 0.31 0.56 0.59 0.48 0.35 0.34 0.43 0.71 1.00 1.13 1.11 1.16 1.33 1.65 1.79 1.62 1.23
0.08 0.11 0.08 0.06 0.07 0.09 0.13 0.17 0.20 0.21 0.18 0.17 0.17 0.16 0.14 0.13 0.27 0.49 0.49 0.29 0.19 0.14 0.12 0.09 0.16 0.28 0.42 0.58 0.55 0.53 0.61 0.48 0.41 0.42 0.48 0.60 0.71 0.80 1.04 1.37 1.61 1.63 1.36
0.09 0.10 0.07 0.06 0.06 0.07 0.10 0.16 0.19 0.20 0.20 0.18 0.16 0.16 0.14 0.13 0.18 0.32 0.49 0.38 0.26 0.22 0.21 0.16 0.14 0.32 0.44 0.53 0.60 0.60 0.79 0.74 0.56 0.54 0.49 0.45 0.46 0.57 0.74 1.05 1.40 1.61 1.57
0.11 0.09 0.07 0.07 0.07 0.08 0.11 0.15 0.19 0.20 0.21 0.21 0.18 0.17 0.16 0.15 0.19 0.29 0.41 0.44 0.41 0.30 0.23 0.17 0.19 0.34 0.45 0.55 0.54 0.59 0.65 0.62 0.54 0.48 0.41 0.38 0.42 0.49 0.59 0.77 1.09 1.30 1.34
0.11 0.09 0.08 0.09 0.10 0.10 0.12 0.16 0.18 0.22 0.23 0.23 0.21 0.18 0.16 0.16 0.22 0.33 0.31 0.32 0.42 0.36 0.27 0.30 0.37 0.45 0.45 0.36 0.33 0.42 0.45 0.44 0.53 0.53 0.42 0.36 0.40 0.51 0.56 0.62 0.77 1.05 1.20
0.10 0.10 0.09 0.11 0.13 0.13 0.14 0.16 0.17 0.23 0.31 0.26 0.22 0.19 0.16 0.18 0.32 0.42 0.33 0.28 0.35 0.41 0.39 0.38 0.42 0.41 0.33 0.25 0.22 0.22 0.23 0.32 0.49 0.56 0.45 0.34 0.33 0.40 0.52 0.65 0.75 0.92 1.14
0.10 0.11 0.13 0.14 0.16 0.18 0.17 0.16 0.17 0.18 0.31 0.30 0.25 0.25 0.29 0.35 0.44 0.51 0.46 0.39 0.40 0.45 0.55 0.59 0.47 0.36 0.32 0.26 0.19 0.15 0.16 0.23 0.31 0.34 0.38 0.38 0.36 0.38 0.45 0.58 0.79 0.94 1.10
0.10 0.12 0.16 0.18 0.19 0.19 0.18 0.18 0.21 0.19 0.23 0.24 0.23 0.25 0.24 0.35 0.45 0.45 0.46 0.44 0.46 0.52 0.63 0.63 0.43 0.29 0.26 0.25 0.23 0.20 0.16 0.17 0.20 0.26 0.33 0.38 0.42 0.44 0.46 0.50 0.66 0.88 1.04
0.10 0.12 0.16 0.19 0.19 0.19 0.18 0.18 0.20 0.21 0.22 0.23 0.24 0.24 0.26 0.30 0.34 0.39 0.44 0.44 0.44 0.47 0.49 0.40 0.31 0.26 0.24 0.23 0.23 0.23 0.20 0.16 0.19 0.24 0.27 0.31 0.38 0.42 0.44 0.47 0.54 0.70 0.89
0.11 0.15 0.16 0.18 0.20 0.21 0.20 0.19 0.19 0.22 0.24 0.24 0.25 0.26 0.27 0.29 0.31 0.35 0.41 0.48 0.44 0.37 0.33 0.32 0.29 0.26 0.25 0.26 0.26 0.25 0.22 0.20 0.20 0.22 0.23 0.25 0.31 0.39 0.42 0.42 0.48 0.62 0.78
0.13 0.15 0.16 0.18 0.21 0.24 0.23 0.23 0.22 0.22 0.23 0.22 0.23 0.28 0.33 0.34 0.34 0.36 0.40 0.43 0.38 0.31 0.27 0.27 0.26 0.28 0.28 0.28 0.27 0.26 0.25 0.23 0.21 0.22 0.22 0.23 0.25 0.31 0.35 0.35 0.41 0.51 0.67
0.14 0.18 0.18 0.19 0.23 0.25 0.25 0.27 0.28 0.28 0.27 0.26 0.25 0.27 0.40 0.53 0.52 0.44 0.39 0.37 0.33 0.28 0.25 0.27 0.27 0.29 0.31 0.32 0.31 0.29 0.28 0.24 0.22 0.21 0.20 0.19 0.20 0.24 0.29 0.30 0.36 0.44 0.52
0.16 0.17 0.21 0.22 0.23 0.25 0.29 0.31 0.33 0.35 0.34 0.30 0.25 0.26 0.46 0.63 0.54 0.38 0.34 0.33 0.34 0.33 0.31 0.31 0.30 0.29 0.30 0.32 0.32 0.30 0.29 0.24 0.20 0.20 0.20 0.18 0.18 0.20 0.21 0.25 0.30 0.36 0.44
0.16 0.17 0.19 0.22 0.26 0.30 0.33 0.35 0.38 0.39 0.37 0.35 0.31 0.29 0.38 0.43 0.42 0.38 0.32 0.29 0.29 0.32 0.35 0.39 0.36 0.31 0.32 0.36 0.38 0.37 0.30 0.24 0.19 0.20 0.20 0.18 0.17 0.17 0.18 0.21 0.23 0.28 0.36
0.18 0.20 0.24 0.25 0.28 0.37 0.38 0.36 0.37 0.40 0.40 0.39 0.38 0.36 0.36 0.38 0.38 0.37 0.34 0.30 0.30 0.30 0.31 0.35 0.36 0.30 0.28 0.31 0.34 0.39 0.38 0.28 0.22 0.23 0.25 0.21 0.18 0.17 0.17 0.20 0.21 0.25 0.32
0.23 0.27 0.29 0.29 0.31 0.36 0.40 0.40 0.39 0.40 0.41 0.41 0.40 0.39 0.38 0.37 0.35 0.33 0.32 0.33 0.34 0.32 0.31 0.34 0.34 0.31 0.29 0.30 0.30 0.31 0.31 0.28 0.29 0.29 0.27 0.28 0.24 0.19 0.20 0.22 0.22 0.24 0.29
0.28 0.30 0.32 0.32 0.34 0.37 0.41 0.42 0.41 0.41 0.42 0.42 0.41 0.40 0.38 0.37 0.35 0.31 0.29 0.30 0.31 0.30 0.29 0.32 0.34 0.34 0.33 0.32 0.30 0.30 0.29 0.30 0.35 0.43 0.46 0.42 0.31 0.24 0.25 0.25 0.23 0.23 0.27
0.28 0.30 0.32 0.34 0.37 0.40 0.45 0.48 0.45 0.42 0.45 0.44 0.42 0.41 0.39 0.38 0.35 0.32 0.30 0.30 0.32 0.30 0.28 0.29 0.31 0.35 0.35 0.34 0.31 0.32 0.35 0.34 0.36 0.41 0.52 0.54 0.41 0.29 0.27 0.30 0.26 0.26 0.28